ECMWFFLT1_sfc_thetae_057.txt.gz
Theta_e
286 286 286 286 286 287 286 286 286 286 285 286 286 286 286 285 285 284 284 284 285 284 283 283 282 282 282 281 281 281 280 280 280 280 280 280 280 280 279 279 279 278 278 277 277 277 276 275 275 275 275 275 275 275 275 274 274 274 274 274 276 276
286 286 286 285 286 286 286 285 285 285 285 285 285 285 284 284 284 284 283 283 284 283 282 282 282 282 282 281 281 280 280 280 280 280 280 280 280 279 279 278 278 277 277 277 276 276 275 275 275 274 274 274 274 274 275 274 273 273 273 273 274 276
286 285 285 285 285 285 285 285 285 285 285 285 285 284 283 284 283 283 283 283 283 282 282 281 281 281 281 281 280 280 279 279 280 280 279 279 279 278 278 277 277 277 276 276 276 275 275 274 274 274 273 273 273 273 274 273 273 272 272 273 272 273
285 284 284 283 284 284 285 285 285 284 284 285 284 284 284 283 283 283 283 282 282 281 281 281 281 281 281 280 280 279 279 279 279 279 279 278 278 278 278 277 277 277 276 276 275 275 274 274 273 273 272 272 272 273 275 273 272 272 272 272 272 272
286 285 284 284 284 284 285 284 285 284 284 284 283 284 283 283 283 283 283 282 281 281 281 281 281 280 280 280 279 279 279 279 278 278 278 278 277 277 277 277 276 276 276 275 275 274 273 273 272 272 272 272 271 271 271 272 271 272 271 272 272 272
285 284 283 283 283 283 284 284 284 284 284 284 283 283 282 283 283 282 282 281 281 281 280 280 280 280 279 279 279 279 278 278 278 278 277 277 277 277 276 276 276 276 275 275 274 273 273 273 272 272 272 272 271 271 271 271 271 271 271 272 272 272
284 284 284 283 283 284 284 284 284 283 283 283 283 283 283 283 282 282 282 281 280 280 280 280 280 279 279 279 278 278 278 277 277 277 276 276 276 276 276 275 275 275 275 275 273 273 272 272 272 272 271 271 271 271 271 271 271 272 272 272 272 275
285 284 284 284 283 284 284 284 284 283 283 283 283 283 282 282 282 282 281 281 280 280 280 280 279 279 279 278 278 277 277 277 277 276 276 277 276 275 275 275 275 276 275 274 273 273 272 272 271 271 271 270 271 271 271 271 271 272 272 272 272 272
284 284 284 284 283 283 284 284 283 283 283 282 282 282 282 282 282 281 281 281 280 280 280 279 279 279 278 278 277 277 276 276 276 277 276 277 276 275 275 276 276 275 274 273 272 272 272 271 271 270 270 270 270 270 271 271 271 272 272 272 272 272
285 284 284 283 283 283 283 284 284 283 283 282 282 282 282 282 282 281 281 280 280 280 280 280 279 278 278 277 277 276 276 276 276 277 277 276 276 275 275 275 275 274 274 273 272 272 271 270 270 270 269 270 270 271 271 271 271 271 272 272 272 272
285 284 284 284 283 282 282 282 283 283 283 283 282 282 282 282 282 281 281 280 280 280 280 279 279 278 277 277 277 276 276 276 276 276 277 276 276 276 275 275 275 273 273 272 272 271 271 271 271 271 270 270 271 271 271 271 270 270 270 271 271 271
286 285 285 284 283 283 282 283 283 284 283 283 283 282 283 282 282 281 280 280 280 280 279 279 278 278 278 277 277 277 276 276 276 276 276 276 276 275 275 274 273 272 272 272 272 271 271 271 271 273 276 276 272 271 272 271 270 270 270 270 270 270
287 285 284 284 284 283 283 283 283 284 283 283 283 283 283 282 281 281 280 280 280 280 279 279 279 278 278 278 278 277 276 276 275 275 276 275 275 274 273 273 273 273 272 272 271 270 270 270 271 276 278 278 278 273 271 270 270 270 270 270 269 269
286 285 285 285 284 284 284 283 283 283 283 284 283 283 283 282 282 281 281 281 280 280 279 279 279 279 278 278 278 277 277 276 276 275 275 274 274 273 273 273 273 272 272 271 270 269 269 270 274 277 279 280 279 277 272 270 269 269 271 271 270 270
287 287 286 285 285 285 285 285 284 283 284 284 284 283 282 282 281 281 281 281 281 280 280 280 279 279 278 278 277 277 276 276 275 275 274 274 274 273 272 272 272 271 271 270 269 269 269 269 276 278 279 280 280 280 276 273 272 272 271 272 271 271
288 288 287 287 286 286 286 285 284 284 284 284 284 283 282 282 281 281 281 281 281 280 280 280 279 279 278 278 277 276 276 275 275 275 274 274 273 273 273 272 271 271 270 270 269 269 268 268 274 278 280 280 280 280 278 274 274 273 272 272 272 272
288 288 287 287 286 286 285 285 285 284 284 284 283 283 282 282 281 281 281 281 280 280 279 279 279 279 278 278 277 276 275 275 274 274 274 273 273 272 272 271 271 270 269 268 268 268 268 268 275 278 280 280 280 279 278 274 274 273 272 273 273 273
288 288 288 288 287 286 286 285 285 284 283 284 283 283 283 282 281 281 281 281 280 280 280 280 280 279 278 277 277 276 276 275 274 274 273 273 273 272 272 271 270 270 268 268 267 267 267 267 276 277 279 280 280 279 276 274 273 272 272 272 272 272
289 289 288 287 287 286 286 286 285 284 283 283 283 283 282 282 281 281 281 281 280 280 280 280 280 279 278 277 276 276 276 275 274 274 273 272 273 272 271 270 269 268 268 267 267 267 267 266 273 277 278 279 280 278 274 273 272 272 271 271 270 270
288 288 288 287 287 287 286 286 285 284 283 282 282 282 281 281 281 281 281 281 280 280 280 280 279 279 278 277 276 275 276 275 275 274 273 272 272 271 270 269 267 267 267 267 266 267 266 266 270 276 278 279 280 278 272 272 271 270 270 269 270 269
288 287 287 287 286 286 285 285 285 284 283 282 281 281 281 281 281 281 281 281 281 280 280 279 279 279 278 277 276 276 276 276 275 274 272 272 271 270 268 267 267 266 265 266 266 269 267 265 268 275 277 279 280 278 272 271 269 268 268 268 269 269
286 286 286 286 286 284 284 284 284 283 283 282 281 280 281 281 282 282 281 281 280 280 280 279 279 279 278 278 277 276 277 276 273 272 271 270 269 268 267 267 267 266 266 265 265 265 267 265 264 267 277 278 279 279 273 271 269 268 268 268 268 267
286 286 285 285 284 284 284 284 284 283 282 281 280 281 282 282 281 280 280 280 279 279 279 279 279 279 279 278 278 277 274 273 272 270 269 268 267 266 265 266 266 265 265 264 265 264 265 266 265 265 274 277 279 279 277 271 270 269 267 266 267 267
283 283 282 282 283 283 284 284 283 283 281 281 281 282 283 281 280 280 279 278 279 279 279 279 279 279 279 277 275 273 273 271 271 270 269 267 266 266 266 265 265 264 264 263 263 263 264 265 267 264 271 276 278 279 280 273 270 270 267 267 267 268
282 282 281 280 281 282 283 283 282 281 281 281 282 283 280 280 279 278 278 278 278 278 278 279 278 278 277 275 274 274 273 270 269 268 267 267 266 266 265 265 264 264 263 263 263 263 263 263 264 270 267 272 277 278 279 279 275 275 271 268 268 268
281 280 278 278 279 280 282 283 282 280 280 282 282 278 276 277 277 277 278 278 278 278 277 277 277 277 276 275 274 273 272 270 269 267 267 267 266 266 265 265 264 263 263 263 264 263 263 263 263 267 272 270 274 277 279 280 280 278 273 271 269 269
279 278 277 276 276 276 279 280 281 278 279 280 277 276 276 276 276 277 277 277 277 277 277 276 276 275 275 274 273 273 272 269 268 267 266 265 266 266 266 266 264 264 264 264 264 265 264 263 263 263 267 273 274 276 278 279 280 280 279 274 272 272
277 277 277 275 274 275 275 276 279 279 279 274 276 275 276 275 275 276 277 276 276 276 275 274 274 273 273 272 273 273 273 271 268 269 266 266 266 266 266 266 264 264 264 264 265 265 265 264 263 263 263 267 272 274 276 277 279 279 279 278 275 275
276 274 274 276 273 273 273 273 276 277 273 272 274 274 273 274 276 276 274 275 275 273 273 275 274 272 270 270 270 270 271 270 269 269 267 266 266 266 266 266 265 265 264 265 265 266 264 263 263 264 264 264 265 268 271 274 275 278 278 277 276 277
276 275 274 276 275 273 273 274 274 273 269 270 272 271 272 273 274 274 273 272 270 271 270 273 270 270 270 269 269 270 269 268 269 269 268 267 267 267 267 267 266 266 266 266 267 264 262 263 263 264 264 265 265 267 269 270 271 273 274 274 275 274
273 273 274 274 273 271 271 271 270 269 271 270 267 270 272 272 270 270 268 268 268 269 268 269 269 270 270 268 267 269 270 270 268 269 270 270 267 269 269 268 268 268 268 267 266 265 264 264 264 266 269 267 270 267 267 267 269 270 271 273 275 272
273 272 273 273 272 270 271 270 269 269 270 268 266 268 271 270 269 267 268 269 269 269 267 268 267 267 268 267 267 266 266 268 272 270 268 268 271 273 274 273 269 268 265 266 267 267 267 267 268 271 273 274 274 274 274 273 273 273 272 273 276 274
272 271 272 273 272 270 270 270 269 268 268 269 268 269 269 268 269 268 269 268 269 269 268 267 267 266 266 266 266 265 266 265 266 274 275 274 272 273 275 276 276 276 274 269 266 269 274 274 274 274 275 275 276 276 276 276 275 275 275 275 273 272
272 272 273 272 272 271 270 270 268 268 267 267 268 267 269 268 271 270 270 269 267 268 268 266 267 265 265 264 264 264 263 264 265 265 271 275 276 275 275 276 276 277 277 277 274 269 267 273 276 276 276 276 277 277 277 277 277 277 277 277 276 271
272 272 271 270 269 269 268 269 268 266 266 266 266 266 267 267 268 270 267 267 267 267 267 266 265 265 265 264 263 262 262 263 263 265 265 267 274 276 276 276 277 277 277 278 278 277 273 272 274 276 276 276 277 277 277 278 278 278 278 278 274 272
271 270 269 269 269 268 267 266 264 263 263 264 265 265 267 266 267 267 266 266 266 266 265 265 265 265 264 264 264 263 263 263 264 264 263 262 261 265 271 275 277 277 277 277 278 277 277 276 275 275 276 276 277 277 278 278 276 278 279 277 273 273
270 269 268 268 267 266 265 262 261 261 262 261 262 264 264 264 265 263 265 267 266 264 265 264 264 264 263 262 263 262 263 263 263 263 263 262 262 263 264 263 268 274 277 275 275 276 277 277 277 276 276 276 277 277 277 278 274 273 274 275 274 273
267 265 264 265 264 263 262 259 259 259 260 259 260 262 262 263 263 262 263 263 264 263 262 262 263 263 263 262 262 262 262 261 261 263 262 261 262 262 261 260 262 265 272 275 276 276 276 277 278 277 276 276 277 277 277 273 272 272 272 271 272 270

ECMWFFLT1_sfc_thetae_060.txt.gz
Theta_e
288 288 288 288 288 288 288 287 287 288 288 287 286 286 286 285 285 285 285 285 285 284 284 283 282 282 281 281 280 280 280 279 279 280 280 280 280 280 279 279 278 278 277 277 277 277 277 276 276 276 276 275 275 275 275 274 274 275 274 274 275 275
287 287 287 287 287 287 286 286 286 286 286 286 286 286 285 284 284 285 284 285 285 284 283 282 282 282 281 281 280 280 280 280 280 279 279 280 280 279 279 278 278 278 277 277 276 276 276 276 275 275 275 275 274 274 274 274 273 273 273 273 274 275
286 286 287 287 286 286 286 285 285 286 286 285 285 285 284 284 284 284 284 284 284 283 282 282 281 281 281 280 280 280 279 279 280 280 280 280 279 279 278 278 277 277 277 276 276 276 275 275 275 275 274 274 274 274 273 272 273 273 273 273 273 273
286 285 285 286 286 286 285 285 285 285 285 286 285 285 284 284 284 284 284 284 283 282 282 281 281 281 281 280 279 279 279 279 279 279 279 279 279 278 278 278 277 277 276 276 275 275 276 275 275 274 274 274 274 274 274 273 272 272 272 272 272 272
286 285 285 285 285 286 285 284 285 285 285 285 285 284 284 284 284 284 284 283 282 282 282 281 281 280 280 280 279 279 279 279 279 279 279 279 278 278 278 277 277 276 276 276 276 276 276 275 274 273 273 273 273 273 273 272 272 272 272 272 272 271
285 284 284 284 285 285 285 285 285 285 285 285 284 284 284 284 284 283 283 283 282 282 281 281 281 280 280 279 279 279 279 279 279 279 279 278 278 277 277 277 276 276 276 276 276 275 274 273 273 273 273 272 272 272 272 272 271 271 271 271 271 271
284 284 285 285 285 285 285 285 285 284 284 284 284 284 284 284 283 283 283 282 281 281 281 280 280 280 280 279 279 278 278 278 278 278 278 277 277 277 276 276 276 276 276 276 275 275 274 274 274 273 272 272 271 272 271 271 271 271 271 271 271 274
285 284 284 285 285 285 285 285 285 284 284 284 284 284 283 283 283 283 282 282 281 281 281 280 280 280 280 279 279 278 278 278 278 278 277 277 277 276 276 276 276 276 275 276 275 275 274 274 274 274 272 271 271 271 271 271 271 271 271 271 271 271
284 285 285 285 285 285 285 285 285 284 284 283 283 284 283 283 283 282 282 281 281 281 281 280 280 280 279 279 279 279 278 278 278 277 277 277 277 277 276 276 275 276 275 275 275 275 274 273 272 272 271 271 270 270 271 271 271 271 270 270 270 270
285 284 284 284 284 285 285 285 285 284 284 283 283 283 283 283 282 282 281 281 281 280 280 280 280 280 279 279 279 278 278 278 278 278 277 277 276 276 276 276 276 276 276 275 275 275 274 273 273 272 271 270 270 271 271 271 271 271 271 271 270 270
285 285 284 284 284 284 284 284 284 284 283 283 283 282 283 283 282 282 281 281 280 280 280 280 280 279 279 278 278 278 278 278 278 278 276 276 277 277 277 277 276 274 275 275 275 273 273 273 273 272 271 271 271 271 271 271 271 271 271 270 270 270
285 285 284 284 284 284 284 284 284 283 283 282 282 282 282 282 282 282 282 281 281 281 281 281 280 279 278 278 278 277 278 278 278 277 276 276 276 276 276 276 276 275 275 274 274 274 273 273 272 274 277 276 272 271 272 271 271 271 271 271 270 270
285 285 284 284 284 284 284 284 284 283 283 282 282 282 282 283 282 282 282 281 281 281 281 280 280 279 278 278 278 278 278 278 277 276 276 276 275 275 275 275 275 275 275 274 274 273 272 272 272 277 279 279 278 273 271 271 270 270 271 270 270 270
285 285 285 285 284 283 283 284 284 284 283 283 283 283 282 282 282 282 282 282 282 281 281 280 280 279 279 278 278 278 278 277 275 275 276 276 276 276 275 275 275 275 274 274 273 273 273 273 275 279 280 281 280 277 272 271 270 270 271 271 270 270
287 286 286 285 285 284 284 285 284 284 284 284 283 283 282 282 282 282 282 282 281 281 281 280 280 279 279 278 278 278 277 276 276 276 276 276 276 275 274 275 275 274 273 273 273 272 272 272 277 280 281 281 282 281 275 270 270 270 270 271 271 270
287 287 286 286 286 285 285 285 285 285 285 284 283 283 282 282 282 282 282 282 281 281 280 280 280 279 279 278 278 277 276 276 276 276 276 276 275 275 274 274 274 274 273 273 273 272 272 272 276 280 281 282 282 282 278 271 271 271 270 271 271 270
288 287 286 286 286 285 285 284 284 284 283 283 283 282 282 283 283 282 282 282 281 281 280 280 280 279 279 278 278 277 276 276 276 276 276 276 275 275 274 274 274 274 273 273 273 272 272 271 276 280 281 282 283 283 281 272 272 272 272 272 271 271
288 287 287 286 286 285 285 284 284 284 283 283 283 283 283 283 282 282 282 282 281 281 280 280 280 279 279 278 277 276 276 276 276 276 276 275 275 275 275 274 274 273 273 273 272 272 271 271 277 280 281 282 283 283 279 273 273 272 272 271 271 271
288 288 287 286 286 285 285 285 284 284 283 283 283 283 283 283 282 282 282 282 282 281 281 280 280 279 278 278 277 277 277 277 276 276 276 274 275 275 274 274 274 273 273 272 271 271 271 271 275 280 281 282 283 282 275 273 273 272 271 271 271 271
287 287 287 286 285 285 285 285 284 284 283 283 283 283 283 283 282 283 283 282 282 281 281 280 280 279 279 278 277 277 277 277 277 276 276 275 274 274 274 274 273 273 272 272 271 271 271 270 272 279 281 282 283 282 274 273 273 272 272 271 271 270
287 287 287 286 285 285 285 285 285 284 283 283 283 283 283 283 283 283 282 282 282 281 281 280 280 280 279 278 278 278 277 277 277 277 275 275 275 275 274 273 272 272 271 271 271 272 270 269 270 278 281 282 282 281 274 273 272 271 270 270 269 270
287 286 286 286 286 286 285 285 285 285 284 284 283 283 283 283 283 283 283 282 282 281 281 280 280 280 280 279 279 278 277 277 276 275 274 273 273 273 272 272 272 271 271 270 269 268 269 268 267 271 280 281 282 283 275 272 271 270 269 269 268 267
287 287 287 286 286 286 285 285 285 284 284 283 282 282 283 283 283 283 282 282 281 281 280 280 280 280 280 280 279 279 277 276 276 274 272 272 271 270 270 271 270 270 270 268 267 266 267 268 267 268 277 281 282 283 280 273 272 271 269 267 267 267
285 285 284 284 285 285 285 285 285 284 283 282 282 283 283 282 282 281 281 280 280 280 280 280 280 280 280 279 278 277 276 275 274 274 273 272 270 269 270 269 268 268 268 266 265 265 266 267 270 266 272 278 281 282 283 275 272 272 268 266 266 266
284 284 283 282 283 284 285 285 284 283 282 281 282 282 281 281 280 280 280 280 280 279 279 280 279 279 279 278 277 277 276 273 272 272 271 270 269 269 268 268 267 266 266 266 266 265 265 265 266 272 269 274 279 282 283 282 276 277 271 268 267 267
281 280 279 279 280 282 284 284 282 281 281 282 281 280 279 279 279 279 279 279 279 278 278 278 278 278 278 277 276 275 275 273 272 270 270 269 269 268 268 268 267 266 266 266 267 267 266 265 265 268 273 271 275 279 282 283 282 279 274 270 269 268
279 278 277 277 278 279 281 282 282 280 281 280 279 279 279 278 277 278 277 277 277 277 277 276 277 277 276 276 276 275 275 273 270 270 268 268 268 268 269 269 268 267 267 267 268 269 268 266 265 264 268 273 274 276 279 281 282 282 281 275 272 270
278 278 276 273 273 275 275 276 280 279 277 276 277 277 277 276 276 276 277 276 276 276 276 275 275 275 276 275 275 276 276 274 271 272 270 268 269 269 269 270 268 267 267 268 269 269 270 268 265 265 264 267 271 273 276 278 280 280 281 280 275 275
278 276 276 277 273 272 271 271 273 271 270 271 273 273 274 275 276 276 275 275 275 272 274 275 275 274 273 273 273 273 274 274 272 272 270 269 269 269 269 270 269 269 268 268 269 269 269 266 265 264 263 263 264 266 269 272 275 278 280 279 278 278
277 275 273 275 273 271 270 270 271 270 270 268 270 269 271 273 275 276 275 274 273 273 273 275 272 273 273 272 273 273 272 272 272 272 272 270 270 270 270 269 269 269 269 269 269 269 266 267 265 264 264 264 264 265 267 268 271 273 274 275 276 277
273 272 272 272 271 270 270 270 270 269 271 269 267 269 271 271 271 271 270 269 269 272 271 273 273 274 274 273 271 273 274 274 272 272 273 274 272 272 272 271 271 271 271 270 270 268 267 267 267 267 269 266 269 267 266 267 268 270 272 275 277 275
272 272 272 273 271 271 271 269 269 269 269 266 266 270 272 270 268 268 269 268 270 269 268 269 270 270 271 271 271 270 270 270 275 274 272 271 274 276 277 276 271 270 266 268 269 268 269 269 269 273 274 274 274 275 275 274 273 274 273 274 278 277
271 272 272 272 270 269 269 269 268 268 267 268 267 269 270 269 270 270 270 268 270 270 269 268 269 269 268 269 268 268 268 268 269 276 277 277 275 275 276 277 278 278 276 270 267 269 275 276 276 276 276 276 276 277 277 277 277 276 276 276 274 274
272 272 273 272 270 270 269 269 268 267 266 266 266 267 268 268 271 271 270 269 267 268 268 267 267 266 265 265 264 264 264 265 267 268 273 276 277 278 277 277 277 278 278 278 276 271 266 273 276 277 277 277 278 278 278 278 278 278 278 277 277 272
272 271 272 271 270 270 269 266 264 263 263 264 265 266 268 266 268 269 268 266 266 266 267 265 264 264 263 264 262 262 262 264 264 266 267 266 274 276 277 278 278 278 278 279 279 279 278 275 274 276 277 278 278 278 278 278 279 279 279 278 275 272
271 270 269 269 268 267 265 262 260 260 260 261 263 264 264 264 265 265 266 265 264 264 264 264 263 263 264 262 263 262 262 263 264 264 264 263 262 265 269 273 276 277 278 278 279 279 278 279 279 278 278 277 277 278 278 278 277 279 280 278 273 273
269 268 267 267 266 263 261 259 258 258 259 259 260 261 261 261 262 260 263 265 265 263 263 263 263 263 262 262 261 261 262 263 261 262 262 261 261 262 263 261 263 269 274 274 276 277 278 278 278 279 279 278 277 277 278 278 275 274 275 276 275 273
265 264 264 263 262 261 259 257 258 258 258 258 258 260 260 261 261 260 261 261 261 261 262 261 260 261 261 261 261 260 261 261 261 262 261 260 260 260 260 259 261 261 267 271 273 275 276 276 277 277 278 278 278 278 277 273 273 273 273 273 274 274

ECMWFFLT1_sfc_thetae_063.txt.gz
Theta_e
290 290 290 291 291 291 291 291 291 291 291 290 290 289 288 287 286 285 284 283 283 283 282 281 281 281 281 281 281 281 280 280 280 279 279 279 279 280 279 279 278 278 278 278 277 277 277 277 277 277 276 276 276 276 276 276 276 276 275 275 275 275
289 289 289 289 289 289 289 289 290 290 290 289 289 289 288 286 285 284 283 283 283 282 282 281 281 281 281 281 281 280 280 280 280 279 279 279 280 279 279 279 278 278 277 277 277 277 277 277 276 276 276 275 276 275 275 275 275 275 275 274 275 274
288 288 288 288 288 288 288 288 288 290 290 289 289 288 286 285 285 283 283 283 282 282 281 281 281 280 281 280 280 280 280 280 280 279 279 279 279 279 278 278 278 278 278 277 277 277 276 276 276 275 275 274 274 274 274 274 274 274 274 274 273 273
286 286 286 286 287 287 287 287 287 287 288 289 289 288 287 285 284 283 283 282 283 282 282 281 281 281 280 280 280 280 280 280 279 279 279 279 279 279 279 278 278 277 277 277 277 276 276 276 275 275 274 274 274 274 274 274 274 273 273 273 273 272
286 286 287 287 287 287 287 286 286 287 287 288 288 287 287 286 285 284 283 283 282 282 282 281 281 280 280 280 279 279 279 279 279 279 279 279 279 279 278 278 277 277 277 276 276 276 275 275 275 274 274 274 274 273 273 274 274 273 273 272 272 272
285 285 285 286 286 286 286 286 286 286 286 287 288 287 287 286 285 284 283 283 282 282 281 281 281 280 280 279 279 279 278 278 279 279 279 279 279 278 278 277 277 277 276 276 275 275 275 275 274 274 274 274 274 273 273 273 273 273 272 272 272 271
284 285 286 286 286 286 286 286 286 285 286 286 287 287 287 286 285 284 283 282 282 281 281 281 280 280 279 279 279 278 278 278 279 279 279 278 278 278 277 277 277 277 277 276 275 275 275 274 274 274 274 274 274 274 274 273 273 273 272 272 272 273
285 285 285 286 286 286 286 286 286 285 285 285 286 287 286 286 285 284 283 282 282 281 281 281 280 280 280 280 280 279 279 279 279 279 278 278 278 278 278 277 277 277 277 276 276 275 275 275 274 273 273 273 274 274 274 273 273 273 272 271 271 272
285 285 285 286 286 286 286 286 286 285 285 285 285 286 286 285 284 284 283 282 282 281 281 281 280 281 281 280 280 280 279 279 279 279 279 279 279 278 278 278 277 277 277 277 276 275 275 275 274 273 274 274 274 274 273 273 272 271 271 271 271 271
285 285 285 285 285 286 286 286 286 285 285 284 284 285 285 285 284 283 282 282 281 281 281 281 281 281 281 281 280 279 279 279 279 279 279 279 278 278 278 278 277 277 277 276 276 275 275 274 274 274 273 273 273 274 273 272 272 272 271 271 271 271
285 285 285 285 285 285 285 285 285 285 285 285 284 284 284 285 284 283 282 282 281 281 282 282 281 281 281 280 280 279 279 279 279 279 279 279 278 278 278 278 278 277 276 276 276 275 275 274 274 274 274 273 273 273 273 272 272 273 272 271 271 271
285 285 285 284 284 285 285 285 285 285 285 284 284 283 284 284 284 283 283 282 282 282 282 281 281 281 280 280 280 279 279 279 279 279 278 278 278 278 278 277 277 277 276 275 275 275 275 274 275 276 278 277 274 273 273 273 273 273 272 271 271 271
285 285 284 285 285 285 285 285 285 285 284 284 284 283 283 283 283 283 283 282 282 282 282 281 281 281 280 280 280 280 279 279 279 278 278 278 278 277 277 277 276 276 276 275 275 274 274 274 275 278 280 280 279 275 274 273 273 272 272 271 271 271
285 285 285 285 285 285 285 285 285 285 284 284 284 283 283 283 283 283 283 282 282 282 281 281 281 280 280 280 280 280 279 279 278 278 278 278 277 277 276 276 276 276 276 275 275 274 274 274 277 280 281 282 281 278 274 274 273 272 272 272 271 271
286 286 285 285 285 285 285 285 284 284 285 284 284 283 282 283 283 283 282 282 282 282 281 281 281 280 280 280 280 279 279 278 278 278 277 277 277 277 276 276 276 275 275 275 275 274 274 274 278 281 283 283 283 281 277 274 273 272 272 272 271 270
286 286 286 286 286 286 285 285 285 285 285 284 283 282 282 282 282 282 282 282 282 281 281 281 281 280 280 280 279 279 278 278 278 278 278 277 277 276 276 276 276 276 275 275 274 274 274 274 277 281 283 284 284 283 279 273 273 272 272 272 271 271
285 285 286 286 286 285 285 285 285 285 284 283 283 283 282 282 282 282 282 282 281 281 281 281 280 280 279 279 279 279 278 278 278 278 278 277 277 276 276 276 275 275 275 275 275 274 274 274 278 281 283 284 284 284 282 273 272 272 272 271 271 271
286 286 286 285 285 285 285 285 285 284 284 283 283 282 282 283 282 282 282 281 281 281 280 280 280 280 279 279 279 278 278 278 278 277 278 277 277 277 276 276 276 275 275 275 274 274 273 274 279 281 283 284 285 285 281 273 272 272 271 270 271 271
286 285 284 284 284 284 284 284 284 284 283 282 282 282 282 282 282 282 282 281 281 281 280 281 280 280 279 279 278 278 278 278 278 278 278 277 277 277 276 276 276 276 275 275 274 273 274 274 277 280 282 284 285 284 279 274 273 272 270 270 271 271
283 284 284 283 283 283 283 283 283 283 283 283 282 282 282 282 282 282 282 282 282 281 281 281 281 280 280 279 278 278 279 278 279 278 278 277 276 276 276 276 276 275 275 275 274 274 274 274 276 280 282 283 285 284 279 276 274 273 272 271 271 271
283 283 283 283 282 282 283 283 283 283 283 283 282 282 281 281 282 283 283 283 283 282 282 281 281 281 280 280 279 279 279 279 278 278 278 277 277 277 276 275 275 275 274 274 274 276 274 274 275 278 280 282 284 284 280 276 274 273 273 273 272 272
283 282 282 282 282 282 282 282 282 282 281 281 281 281 282 283 283 284 284 284 283 283 282 282 281 281 281 280 280 279 279 279 278 277 277 276 276 276 275 274 275 274 274 274 273 273 273 272 272 274 279 281 283 284 280 275 274 273 273 273 272 270
284 283 283 283 282 282 282 283 283 282 283 283 283 282 283 284 284 284 284 283 283 282 282 282 282 281 281 281 280 280 279 278 278 277 276 275 275 274 273 273 273 273 273 272 271 270 270 270 270 272 277 280 282 284 283 275 275 275 273 272 271 269
283 283 282 282 283 284 284 284 284 284 283 283 283 284 284 284 284 284 283 283 282 282 282 281 281 282 281 281 280 279 278 277 277 277 276 275 274 273 273 272 271 271 271 271 270 269 269 270 272 270 274 278 280 283 284 279 276 276 273 272 270 269
283 282 281 282 284 284 285 285 284 284 283 283 284 284 284 283 283 283 282 282 282 281 281 281 280 280 280 279 279 279 278 277 276 275 274 273 273 272 272 272 271 270 270 270 269 269 268 268 269 273 271 275 278 281 283 284 281 280 275 272 271 270
281 281 281 282 283 285 285 285 284 283 283 283 282 282 281 281 281 282 281 281 281 280 280 280 280 280 279 279 278 278 277 275 275 274 273 273 272 272 271 271 271 270 270 270 271 271 270 269 268 270 274 273 276 278 281 283 284 284 277 273 272 272
281 281 280 280 282 283 284 285 284 282 282 281 281 281 281 280 280 280 280 280 280 279 280 279 279 279 278 278 278 277 277 275 273 273 272 271 272 272 272 272 271 270 270 271 271 272 272 270 268 267 270 275 276 277 278 280 281 283 284 279 274 273
280 280 279 277 277 279 280 281 283 282 281 278 279 279 279 278 278 279 279 279 279 278 278 278 277 277 277 276 277 277 277 276 274 274 273 271 272 271 272 272 271 270 270 270 271 271 272 270 268 268 267 270 272 275 277 278 279 279 281 282 281 279
279 278 278 277 273 274 275 274 274 274 273 274 275 276 277 277 278 278 276 276 276 274 275 276 276 275 275 275 276 276 276 276 275 274 273 272 271 271 271 271 271 271 270 270 271 271 271 270 268 267 265 264 265 267 269 272 274 277 278 277 277 279
276 274 274 274 270 271 271 272 270 268 268 268 269 269 271 273 273 274 273 273 272 273 274 276 273 275 275 275 275 275 274 274 274 274 274 272 272 271 271 271 271 271 271 271 271 271 270 270 268 267 265 264 264 264 265 266 267 268 270 271 273 275
274 273 273 272 269 270 271 270 269 268 269 268 267 270 273 273 271 271 270 270 270 272 272 273 272 273 274 273 272 273 273 273 273 274 273 272 271 272 272 271 272 272 271 271 271 269 269 269 269 268 272 268 270 266 265 264 265 267 267 271 274 274
273 273 272 270 269 270 270 268 268 268 268 267 267 269 273 271 271 270 269 269 270 268 269 269 269 268 270 270 270 269 269 271 277 274 272 270 275 277 278 277 272 269 266 269 270 269 270 271 270 275 276 276 276 276 275 273 273 273 270 272 275 275
271 272 271 270 269 269 268 266 265 265 265 267 268 269 269 270 271 270 268 268 268 268 267 266 266 266 266 266 266 266 267 266 268 276 278 278 277 277 277 279 279 280 278 271 269 270 276 277 277 278 278 278 278 278 278 278 278 277 277 278 274 272
272 273 272 271 270 268 266 264 262 262 263 264 265 266 268 269 270 269 267 266 265 266 266 265 265 264 264 263 263 263 264 264 265 267 273 276 277 278 279 279 279 279 279 280 278 273 268 274 277 278 278 279 279 279 279 279 279 279 279 279 279 273
271 270 270 268 266 264 263 261 260 260 260 261 262 263 266 265 267 266 264 263 264 264 265 263 262 262 262 262 262 262 261 262 263 265 266 266 273 274 275 276 278 279 279 280 280 280 279 279 278 278 279 279 279 279 279 279 280 280 280 280 277 274
268 267 266 264 262 261 260 259 258 258 258 258 260 262 264 263 263 263 263 263 263 263 262 261 261 261 261 261 261 260 260 261 261 262 261 262 264 265 268 272 273 274 274 275 276 278 278 279 279 279 279 279 279 279 279 278 277 279 280 278 275 274
266 265 264 263 261 260 259 257 257 257 257 257 258 260 261 261 262 261 263 264 263 261 262 261 262 261 259 260 260 260 261 262 261 262 261 260 260 261 262 262 263 267 271 270 271 273 275 276 277 278 278 278 279 279 280 280 276 274 274 275 276 275
263 262 261 260 259 258 258 257 257 256 257 256 257 260 261 261 261 261 262 261 260 260 260 259 259 259 260 259 259 258 259 260 260 261 259 259 259 258 258 258 259 260 265 269 271 272 273 273 274 275 276 276 277 278 278 275 274 273 273 273 274 274

ECMWFFLT1_sfc_thetae_069.txt.gz
Theta_e
289 290 291 292 293 295 296 297 296 296 296 296 295 294 293 292 291 291 291 291 290 290 289 289 288 288 287 287 286 285 284 284 284 283 283 283 283 283 283 282 282 282 282 282 282 282 282 282 281 281 281 281 281 280 280 280 280 280 279 279 279 279
289 289 290 290 292 293 294 295 295 295 295 295 295 295 294 292 290 290 289 290 290 289 288 288 288 288 287 286 285 284 284 284 283 283 282 283 283 283 282 282 281 281 281 281 281 281 280 280 280 280 280 280 280 280 280 279 279 279 279 279 279 278
288 288 289 290 290 292 293 294 294 295 294 294 294 294 293 291 291 290 290 289 289 288 287 287 286 286 286 285 284 283 283 283 283 283 282 282 282 282 281 281 281 281 281 281 281 280 280 280 279 280 280 280 280 279 279 279 279 279 278 278 278 278
287 287 288 288 289 290 291 292 293 293 293 293 293 293 292 291 290 290 289 288 288 287 287 286 286 286 285 284 283 283 283 282 282 282 281 281 282 282 281 281 281 281 281 280 280 280 279 280 279 279 279 279 279 278 278 278 278 278 277 277 277 277
287 287 287 288 289 290 290 291 292 292 292 292 292 292 291 291 290 290 289 287 287 287 286 286 285 285 284 283 283 283 282 282 281 281 281 281 281 281 281 281 280 280 280 280 279 279 279 279 279 279 279 278 278 278 278 278 278 277 277 277 276 276
286 286 287 287 288 289 289 291 291 292 291 291 291 291 290 289 289 288 288 287 287 286 285 285 284 283 283 283 283 282 282 281 280 281 281 281 281 280 280 280 280 280 280 279 279 279 279 279 278 278 278 278 278 278 278 277 277 277 277 277 276 276
285 286 287 287 288 288 289 290 290 291 291 291 291 291 290 289 288 287 287 286 286 285 285 284 284 283 283 283 282 282 281 280 280 280 280 280 280 280 280 280 279 279 279 279 279 279 279 279 278 278 278 278 278 278 277 277 277 277 277 276 276 276
286 286 286 287 288 288 289 289 290 290 290 290 291 290 289 288 287 287 286 286 286 285 284 284 283 283 283 283 282 281 281 280 280 280 280 280 280 279 279 279 279 279 279 279 279 279 279 279 278 278 278 278 278 278 277 277 277 277 276 276 276 276
285 286 286 287 287 288 288 289 289 289 290 289 289 290 289 288 287 287 286 286 286 285 284 284 283 283 283 282 282 281 280 280 280 280 280 280 280 279 279 279 279 280 279 279 279 279 279 278 278 278 277 277 277 277 277 277 277 276 276 276 276 276
286 286 286 286 287 287 288 288 289 289 289 289 288 288 288 287 287 286 286 286 285 285 284 284 283 283 283 282 282 281 280 280 280 280 280 280 280 280 279 279 279 279 279 279 279 279 278 278 277 277 277 277 277 277 277 277 277 276 276 275 275 276
287 286 286 286 286 286 287 287 288 288 288 289 288 287 288 287 286 286 286 285 285 285 285 284 283 283 282 282 281 280 280 280 280 280 280 280 280 280 280 280 280 279 279 279 278 278 278 277 277 277 277 276 276 277 276 277 277 276 275 275 275 275
288 287 286 286 286 286 286 287 287 288 288 288 287 287 287 286 286 286 285 285 285 285 284 283 283 282 282 281 280 280 280 280 280 280 280 280 280 280 280 279 279 279 279 278 278 278 277 277 277 279 280 279 277 277 277 276 276 276 276 276 275 275
288 287 286 286 286 286 286 287 287 287 287 287 287 287 286 286 286 286 285 285 285 285 284 283 282 282 281 281 281 281 280 280 281 280 280 280 280 279 279 279 279 278 278 278 278 277 277 277 277 280 282 282 281 277 277 276 277 276 276 276 275 275
289 287 287 287 286 286 286 286 287 287 287 287 287 287 286 286 286 285 285 285 285 284 283 283 282 282 282 281 281 281 281 281 281 280 280 280 279 279 279 278 278 278 278 278 277 277 277 277 279 282 283 283 282 280 277 277 277 277 276 276 276 276
291 290 289 288 287 286 286 287 286 287 287 287 287 286 285 285 285 285 285 284 284 284 283 283 282 282 282 282 281 281 281 281 280 280 279 279 280 279 278 279 278 278 278 277 277 276 276 276 281 283 284 284 284 282 279 278 277 277 277 277 276 276
291 290 289 288 287 287 287 287 287 287 287 287 285 285 285 285 284 284 284 283 283 283 283 282 282 282 282 282 282 281 281 280 280 280 280 280 279 279 278 278 278 278 277 277 277 276 276 276 281 283 284 284 284 284 282 277 277 277 277 277 276 276
289 287 286 286 286 285 285 285 285 285 285 285 284 284 284 284 284 283 283 283 282 282 282 282 282 283 283 282 282 281 281 280 280 280 280 279 279 278 278 278 278 277 277 277 277 276 276 276 281 284 284 284 285 285 285 279 278 277 277 277 277 276
289 288 287 285 284 284 285 284 284 284 284 284 284 283 283 283 283 283 282 282 282 282 282 282 282 282 282 282 281 281 281 281 280 280 280 279 279 279 279 278 278 277 277 277 277 276 276 276 282 283 284 285 285 286 284 282 279 278 277 277 277 277
286 285 283 283 284 284 284 284 284 284 283 283 282 282 282 282 282 282 282 282 282 282 282 282 282 282 281 281 281 280 280 280 280 280 280 279 279 279 278 278 278 278 277 277 276 276 276 276 281 283 284 285 286 285 283 283 282 280 278 277 277 277
282 282 283 282 282 283 283 283 283 283 282 282 281 282 281 282 282 282 282 282 281 281 281 282 281 281 281 281 281 281 281 281 280 280 279 279 278 278 277 277 277 277 277 277 276 276 276 276 279 283 284 285 286 285 283 283 282 281 280 279 279 278
282 282 282 282 281 282 283 283 282 282 281 281 281 281 281 281 281 281 281 281 281 280 281 281 281 281 281 281 281 281 280 280 280 279 279 279 279 278 278 278 277 277 277 277 277 279 277 277 279 282 283 284 285 285 283 283 282 281 281 280 279 279
281 281 281 281 281 281 282 282 282 281 281 280 280 280 280 281 281 281 281 281 280 280 281 281 281 281 281 281 281 281 281 280 279 279 279 279 279 278 278 278 278 277 277 277 277 277 278 277 277 280 283 284 285 285 283 282 282 281 280 280 280 279
282 281 280 280 281 281 281 282 281 280 280 280 280 280 281 281 281 281 281 280 280 280 280 281 281 281 281 281 281 281 280 280 280 279 279 278 278 278 278 277 277 277 277 277 277 277 277 278 277 278 282 283 284 285 284 282 281 281 280 280 280 279
279 279 279 279 280 280 281 281 280 279 279 279 280 280 280 280 281 281 280 280 279 279 279 279 280 280 280 280 280 280 280 280 280 279 279 278 278 277 277 277 277 277 277 277 277 277 277 277 278 277 280 282 283 283 284 282 281 281 280 279 279 279
279 278 278 278 279 280 280 280 279 279 279 279 279 279 280 280 280 280 280 279 279 279 279 280 281 281 281 280 281 280 279 279 279 279 278 278 278 277 277 277 277 276 276 276 276 276 276 275 275 278 277 279 282 283 283 284 283 283 282 280 278 278
278 278 277 278 278 279 280 280 279 278 278 278 279 279 280 280 280 280 279 279 278 278 279 280 281 282 281 281 281 280 279 279 279 278 278 278 278 277 277 277 276 275 275 275 275 275 274 274 274 276 278 277 279 281 282 283 283 283 281 281 280 280
278 278 277 277 277 276 277 278 279 278 278 278 279 280 279 279 279 279 279 278 278 278 278 279 279 280 281 281 281 280 279 279 278 278 277 277 277 277 276 276 275 275 275 275 274 275 275 274 273 272 274 278 278 280 280 281 282 282 283 281 281 281
278 277 276 274 274 275 275 275 278 279 278 277 278 279 279 279 279 278 277 277 278 278 278 278 278 279 280 280 281 281 281 279 278 278 276 277 277 276 276 275 274 274 274 274 274 274 274 273 272 272 271 273 276 277 279 280 281 281 281 281 280 281
277 276 275 273 271 271 272 271 271 273 275 276 278 278 279 279 279 278 278 278 278 278 278 278 279 279 278 278 278 278 278 277 277 276 275 275 275 275 274 274 273 273 273 273 273 273 272 271 271 271 270 269 270 272 273 275 276 279 279 279 279 279
277 275 274 272 270 270 269 269 268 267 269 271 275 276 277 277 277 277 276 275 276 276 276 276 273 275 275 274 275 275 274 273 275 275 274 274 274 273 273 272 272 272 272 272 272 271 271 271 271 271 270 270 269 269 269 269 269 270 270 271 272 273
275 274 272 270 269 269 268 267 266 266 268 270 271 276 276 275 273 273 272 273 273 273 273 274 274 274 274 272 272 270 271 274 274 274 273 271 273 274 273 272 272 272 272 273 272 271 271 270 270 271 274 272 273 270 268 267 268 268 268 271 274 272
274 272 270 269 269 268 267 266 266 265 266 266 269 274 274 273 272 272 271 272 272 271 272 271 271 270 272 272 271 270 270 274 276 274 273 270 275 277 278 277 273 272 271 271 271 271 272 272 271 276 278 278 278 279 278 276 275 275 272 273 276 276
272 270 269 268 267 267 266 265 264 264 265 266 269 273 273 273 273 272 270 271 270 271 270 270 270 269 269 270 270 270 270 270 272 279 279 277 277 278 279 280 279 279 276 272 269 270 277 277 278 278 279 279 280 280 280 281 281 280 280 279 276 275
271 270 268 267 266 265 264 264 262 262 262 262 266 271 273 273 273 272 270 270 269 269 268 269 268 268 268 267 268 269 269 270 269 270 277 279 278 279 279 279 279 280 280 279 278 274 273 276 279 280 280 280 280 280 281 281 281 281 281 281 281 277
270 268 267 265 264 264 264 263 261 261 261 260 263 268 271 271 272 270 268 267 267 267 267 268 268 268 268 267 266 266 268 269 269 269 266 269 276 278 278 277 277 277 277 277 277 277 277 277 277 278 278 278 279 279 279 280 280 280 281 281 279 277
267 266 265 264 264 264 264 262 259 258 258 258 261 265 267 267 268 268 268 268 267 268 267 267 267 267 266 265 266 266 265 265 267 266 267 266 266 268 271 273 273 274 274 275 276 275 275 275 276 276 276 276 277 277 278 278 278 279 279 278 275 275
265 264 264 264 264 263 262 259 258 257 257 257 262 267 266 266 266 265 265 265 265 266 266 265 265 264 263 263 263 264 263 263 262 263 263 264 265 264 263 260 261 267 273 271 271 273 274 274 274 274 275 275 275 275 275 275 272 271 271 272 271 270
264 263 263 263 263 262 261 258 257 257 257 257 261 265 265 265 265 264 264 263 263 263 264 263 262 263 263 262 261 261 261 262 262 263 261 261 260 259 258 258 259 258 265 269 269 271 273 273 273 273 273 273 272 272 272 267 267 267 268 268 268 267

ECMWFFLT1_sfc_thetae_072.txt.gz
Theta_e
299 299 299 300 301 302 304 305 305 305 305 305 304 304 304 304 303 301 300 300 299 298 297 297 296 296 295 295 293 292 291 290 290 290 290 289 289 288 288 287 287 287 289 289 289 288 288 288 288 288 288 289 288 287 286 286 287 286 285 285 284 284
299 299 298 298 299 301 303 304 304 304 304 304 303 304 304 304 303 301 299 298 297 298 297 296 296 296 295 293 291 290 290 290 289 290 289 289 288 288 288 287 287 287 288 288 288 288 287 287 287 287 287 287 287 286 285 285 285 284 284 283 283 283
298 298 298 298 299 300 301 303 303 303 303 303 303 302 302 302 302 301 299 298 297 297 295 295 295 295 294 291 291 290 290 290 289 290 290 288 287 287 287 287 287 288 288 287 287 287 286 286 286 286 286 286 286 285 284 284 284 284 283 283 282 282
297 296 296 297 297 298 299 301 302 302 302 302 302 302 302 302 302 299 298 296 296 296 295 295 295 294 292 290 289 289 289 288 288 288 287 286 287 286 286 287 287 287 287 287 286 286 286 286 285 285 285 285 284 283 284 283 283 283 283 283 282 282
298 296 296 296 296 297 298 299 300 301 302 302 302 301 301 302 301 299 297 296 295 294 295 294 293 291 290 289 289 288 287 287 286 286 286 285 286 286 286 286 286 287 287 286 286 286 285 285 284 285 285 284 284 283 282 283 283 283 283 282 282 282
296 295 295 296 296 296 297 298 299 300 301 301 301 300 301 301 301 299 297 296 294 294 293 293 292 291 289 288 288 288 287 287 287 287 286 286 285 284 285 285 286 286 286 285 285 285 284 284 284 284 284 284 283 282 282 282 283 283 283 283 282 281
294 295 296 296 296 296 297 297 298 299 299 300 300 300 300 300 300 299 297 296 294 292 292 292 291 290 288 287 286 286 286 286 286 286 284 284 283 284 284 284 284 284 285 285 284 284 284 284 283 283 282 283 283 283 282 282 282 283 283 283 281 280
296 295 295 296 296 296 296 297 297 297 298 299 299 299 299 299 299 297 296 294 293 292 291 291 290 289 288 287 287 286 285 285 285 285 284 283 283 283 283 283 283 284 284 285 284 284 284 283 283 282 283 283 283 283 282 282 282 282 282 281 280 279
295 296 295 296 295 296 296 296 296 296 297 297 298 298 298 298 297 296 295 293 293 292 290 289 289 289 288 288 287 285 285 285 285 284 284 283 283 283 282 282 282 283 284 284 284 283 283 283 283 283 283 283 282 282 282 282 282 281 280 279 278 278
297 296 295 295 295 295 295 296 296 296 296 296 297 297 298 297 295 294 294 293 292 293 290 289 288 288 288 288 287 284 284 284 284 284 284 283 283 283 282 282 282 283 283 283 282 282 283 283 283 283 282 282 282 282 281 281 281 280 279 278 278 278
298 297 296 295 294 294 294 294 295 295 296 296 296 296 296 296 294 294 293 292 292 292 291 290 288 287 287 286 285 284 284 284 283 283 283 283 283 282 282 282 282 282 282 282 282 281 281 281 282 282 281 281 282 282 281 281 281 280 278 277 277 277
299 297 296 295 294 294 293 294 294 294 294 295 295 295 295 295 293 293 292 292 292 292 291 290 289 287 286 285 284 285 284 284 283 283 283 283 283 282 282 282 282 282 282 281 281 281 280 280 281 282 283 283 282 282 282 282 281 280 278 277 277 277
298 297 296 296 295 295 293 294 294 294 294 295 295 294 294 294 293 293 292 291 291 291 291 290 289 287 285 285 285 284 283 283 283 283 282 283 283 282 282 282 282 282 282 281 280 280 280 280 280 283 284 284 284 282 282 281 280 279 278 278 277 277
300 298 298 298 297 296 294 294 294 293 293 294 294 294 293 293 292 292 292 291 291 291 290 289 288 286 285 285 284 284 284 283 283 283 282 282 282 282 282 281 281 281 282 281 281 280 280 279 282 284 285 285 284 283 281 281 280 279 278 278 278 278
302 301 301 300 300 297 295 295 293 293 294 293 294 293 292 292 292 292 291 291 290 290 289 288 287 286 285 285 285 284 283 283 282 282 282 282 282 282 281 281 281 281 281 280 280 279 279 279 282 284 285 285 284 283 281 281 281 280 279 279 278 278
303 302 301 301 300 297 296 294 294 294 294 294 293 292 291 291 291 291 290 290 289 289 288 287 286 286 285 285 285 284 284 283 283 283 283 282 282 282 281 281 281 281 281 280 280 280 279 278 282 284 285 285 285 284 282 281 280 280 280 279 279 279
302 301 299 297 296 296 294 293 293 293 293 292 291 291 290 290 290 290 290 289 289 288 287 287 287 286 285 285 285 284 283 283 283 283 283 282 282 281 281 281 281 281 281 280 280 279 279 279 283 285 286 285 285 285 283 280 280 280 279 279 279 279
301 299 298 297 295 293 293 293 292 292 291 291 290 290 290 289 289 289 289 288 288 287 287 286 286 286 285 285 284 284 283 283 283 282 283 282 282 282 282 281 281 281 281 280 279 279 278 278 283 285 286 286 286 286 282 280 279 279 279 279 280 280
298 297 295 292 293 292 292 292 291 291 289 289 289 289 288 288 288 288 287 287 287 287 287 287 286 286 285 285 284 283 283 283 282 282 282 281 282 281 280 280 281 280 280 279 279 278 278 278 282 285 285 286 286 286 283 281 280 280 280 280 280 280
291 290 292 291 290 290 290 290 290 289 288 288 288 288 287 287 287 288 288 287 287 287 287 286 286 285 285 284 283 284 283 283 283 282 282 281 280 280 280 280 280 279 279 279 279 278 278 278 281 284 285 286 286 286 284 283 282 282 282 282 281 281
290 289 289 289 288 288 289 289 288 288 287 287 287 287 287 287 288 287 287 287 287 286 286 286 286 285 284 284 284 284 284 283 282 282 282 282 281 280 280 280 279 279 279 279 278 280 278 278 280 284 285 285 286 286 285 285 284 284 284 284 284 284
287 287 288 288 288 287 288 288 288 286 286 286 287 286 286 287 287 288 288 287 287 286 286 286 285 285 284 284 284 284 284 283 282 281 281 281 281 280 280 279 279 278 278 278 278 279 279 278 278 282 285 285 286 286 285 285 284 284 284 285 285 285
289 288 287 287 287 287 287 287 287 286 286 286 286 285 287 287 288 287 287 286 286 285 285 285 285 284 284 284 284 284 283 283 282 281 281 280 280 280 279 279 279 278 278 278 279 279 279 279 278 280 284 285 286 286 285 284 284 284 285 285 285 285
286 285 285 285 286 286 287 286 285 285 285 285 285 286 287 286 287 286 286 285 285 285 284 284 285 284 284 284 284 283 283 283 282 282 282 281 280 279 279 279 279 279 278 278 278 278 278 280 280 279 283 284 285 285 286 285 284 285 285 284 284 284
284 284 284 285 285 286 286 285 284 284 284 285 285 286 286 286 286 285 285 284 284 283 283 283 283 283 283 283 283 283 282 282 282 282 282 281 280 279 279 278 278 278 278 278 278 278 278 279 280 280 280 283 284 285 286 286 285 286 285 283 282 282
284 283 284 284 285 285 285 284 283 283 284 284 285 285 285 285 285 284 283 283 283 282 283 283 283 283 283 283 283 282 282 282 281 281 281 281 280 280 279 278 278 278 278 277 278 278 278 279 279 280 281 281 283 284 285 285 286 286 284 284 283 283
283 283 283 284 284 284 284 284 283 282 282 283 284 284 284 283 283 283 282 282 282 282 283 283 283 283 283 283 283 282 281 281 281 280 281 280 280 280 279 278 278 278 278 278 278 279 279 279 279 278 279 281 281 282 283 284 284 284 285 283 283 283
283 282 281 282 282 283 283 284 284 283 283 283 284 284 283 283 282 282 282 282 282 282 282 282 282 282 283 283 283 283 282 281 281 281 280 280 280 280 280 279 279 279 279 279 280 280 279 279 278 278 277 278 280 280 281 282 282 282 282 282 282 282
281 281 281 279 279 280 281 281 282 283 283 283 283 283 283 282 282 281 281 281 281 281 282 282 282 282 282 282 283 283 283 282 282 281 280 281 281 280 281 280 279 279 279 279 280 279 279 278 278 278 277 277 277 278 278 279 279 280 280 280 280 280
281 280 279 278 277 277 278 278 279 280 281 282 283 282 282 282 281 281 281 281 281 282 282 282 277 280 282 282 282 282 282 282 282 281 281 281 281 280 280 280 279 279 279 279 279 278 278 277 277 277 277 277 276 276 277 276 276 276 276 277 277 277
280 279 277 275 275 275 275 275 274 276 280 280 281 282 282 281 279 280 280 281 281 281 281 281 281 282 281 281 281 281 281 281 281 281 280 279 281 282 281 280 280 279 280 280 279 278 277 277 277 277 278 277 277 276 276 275 275 276 276 276 277 276
277 276 275 274 274 274 273 273 272 272 275 278 280 281 280 279 279 279 279 280 280 279 280 280 280 280 280 279 278 277 276 276 280 280 280 278 278 279 280 280 279 279 279 278 278 278 278 278 278 278 278 278 278 278 278 278 277 277 277 278 279 279
275 274 273 272 272 272 271 271 271 272 273 276 279 279 279 279 279 278 278 278 279 278 279 278 278 278 278 278 278 278 277 278 279 280 279 279 279 279 280 280 279 279 278 278 277 277 278 278 278 279 279 279 279 280 280 280 281 281 281 281 279 277
274 273 272 272 271 270 270 269 268 269 270 272 277 278 279 279 279 278 278 278 277 276 277 277 276 276 277 277 278 278 278 278 276 276 279 280 280 280 280 280 280 280 279 279 278 278 278 279 279 279 280 280 280 280 280 281 281 281 281 281 282 279
274 273 272 271 270 270 269 268 267 266 267 269 273 277 278 278 278 277 276 275 275 275 275 275 275 276 276 275 276 276 277 277 276 275 275 277 279 279 279 279 279 279 279 279 279 279 278 278 278 278 278 278 278 278 278 279 279 279 280 280 278 277
272 270 270 270 269 268 267 266 265 265 265 266 271 275 276 275 275 275 275 275 274 275 275 275 275 276 276 276 276 276 277 277 277 275 274 273 272 273 274 276 276 277 277 277 277 277 277 277 276 276 276 276 276 276 276 277 277 278 278 276 274 274
270 269 269 268 267 267 266 265 263 262 263 266 271 272 272 272 272 272 269 268 271 275 275 275 275 274 274 274 274 274 273 273 273 273 273 273 273 272 271 269 270 273 274 274 274 275 276 275 275 275 275 275 274 274 275 275 274 274 274 275 273 272
268 267 267 267 266 266 264 263 262 262 262 266 270 271 270 270 271 271 271 271 271 272 272 272 272 272 272 272 271 271 270 270 271 272 271 271 271 269 267 267 267 266 270 272 273 274 274 274 274 273 273 272 272 272 272 271 271 271 271 271 271 270

ECMWFFLT1_sfc_thetae_075.txt.gz
Theta_e
306 305 305 305 306 306 307 308 308 308 308 308 308 307 307 308 308 306 305 305 305 305 304 303 302 301 301 301 301 300 298 297 296 295 296 296 294 292 291 290 290 290 290 290 290 290 291 291 291 292 292 292 292 291 290 290 290 289 288 288 288 287
306 305 304 304 304 305 307 307 308 307 307 307 307 308 308 307 307 305 303 304 304 304 304 303 303 301 300 300 299 299 298 296 295 293 293 294 292 291 290 289 289 289 289 289 289 289 289 289 290 291 291 291 290 289 289 288 288 286 285 285 286 286
305 304 304 304 304 305 306 306 307 307 307 307 307 306 306 306 306 306 304 303 303 303 302 302 301 300 300 298 298 297 295 295 294 293 293 292 291 290 289 289 288 288 289 288 288 288 288 289 289 290 289 289 288 287 287 286 286 285 284 284 283 284
304 303 303 303 303 303 304 306 306 306 306 306 306 306 306 306 306 306 305 303 302 301 301 301 300 300 299 297 297 296 294 294 293 292 291 291 291 289 289 288 288 287 288 288 288 287 287 287 288 288 288 287 286 285 287 286 285 284 283 283 282 283
304 302 301 301 301 302 303 304 305 305 305 306 306 305 305 306 306 306 305 304 302 301 301 300 298 298 297 297 296 295 294 293 292 291 290 290 289 289 289 288 288 287 287 287 287 287 286 287 287 287 287 286 285 285 285 285 284 284 283 282 282 282
302 301 300 300 300 301 301 302 304 305 305 305 305 304 305 305 305 305 304 303 301 300 299 298 297 297 296 295 295 293 292 292 292 290 289 289 289 288 288 288 288 287 286 286 286 286 286 286 286 286 286 286 285 284 284 284 284 284 283 283 282 282
300 300 301 301 301 301 301 301 302 303 304 304 304 304 304 304 305 304 303 301 299 299 298 297 296 295 294 294 293 293 292 291 289 288 288 288 287 287 287 287 287 287 286 286 285 285 285 285 285 285 285 285 285 284 284 284 284 284 284 283 283 282
303 302 301 301 301 301 301 301 302 302 303 304 304 303 303 303 304 303 301 299 298 298 297 296 295 295 295 293 292 291 293 290 288 287 287 287 287 286 286 286 286 286 286 286 285 285 285 285 285 285 284 284 284 284 284 284 284 284 283 283 282 282
302 302 301 301 301 301 301 301 301 301 302 302 303 303 303 302 302 302 300 298 298 297 296 295 294 294 293 293 292 291 290 289 288 287 286 286 286 285 285 285 285 285 285 285 285 284 284 284 284 285 284 284 284 283 283 283 283 283 282 282 281 281
304 303 302 301 301 301 301 301 301 301 301 300 301 301 301 302 301 300 299 298 297 296 295 295 294 293 293 292 291 290 288 288 287 286 286 285 285 285 284 284 284 284 285 284 284 284 285 284 284 284 284 284 284 283 282 283 282 281 281 281 281 281
305 304 303 302 300 299 299 299 299 300 299 300 300 300 300 300 300 299 298 297 296 296 296 295 294 293 292 291 291 289 288 287 286 286 285 285 285 285 285 284 284 284 283 284 284 283 284 284 284 284 283 283 283 283 282 282 282 281 280 280 279 279
306 306 306 303 301 300 298 298 298 298 298 298 299 299 299 299 298 298 297 296 295 295 296 294 293 292 291 292 289 288 287 286 286 285 285 285 285 285 284 284 284 283 283 283 283 283 283 284 284 284 286 285 283 282 283 283 282 281 280 279 278 278
305 306 305 304 302 301 299 299 299 298 298 298 298 298 298 299 297 296 296 295 295 295 295 293 292 292 290 290 289 288 287 286 285 285 285 285 284 284 284 284 283 282 282 282 282 282 282 283 283 285 288 288 286 283 283 282 282 281 280 279 279 278
306 305 304 304 303 302 301 299 299 297 297 297 297 297 297 297 296 296 295 295 295 294 294 293 291 291 290 288 287 287 286 286 285 285 285 284 284 284 284 283 283 283 282 282 282 281 281 282 284 287 288 288 288 285 283 283 282 281 280 279 279 279
308 307 307 305 304 303 302 301 298 297 297 297 297 297 296 296 295 295 295 295 294 294 293 292 291 290 289 288 287 286 286 285 284 284 284 284 284 284 283 283 282 282 282 282 281 281 281 281 285 287 288 288 287 287 284 283 282 281 280 279 279 279
309 309 309 307 306 304 303 300 299 298 298 297 297 295 295 295 294 294 294 293 293 293 292 291 289 288 288 287 287 286 285 284 284 284 284 284 284 283 283 283 283 283 282 282 282 282 281 282 284 286 287 287 287 287 285 283 282 281 280 280 279 280
308 308 305 304 304 302 300 298 298 298 297 296 295 295 294 294 294 293 293 292 292 291 291 290 289 288 287 287 286 285 285 284 284 284 284 284 283 282 282 282 282 282 282 282 282 282 281 280 284 286 286 287 287 287 285 283 282 282 282 281 280 280
307 306 305 304 301 299 298 297 297 296 295 295 294 293 293 292 292 292 292 291 291 290 290 288 288 287 286 286 285 285 284 284 284 284 284 284 284 284 283 283 283 282 282 282 281 281 280 280 284 285 286 287 287 286 283 283 282 282 281 280 279 280
306 305 303 300 299 297 297 297 295 295 293 292 293 291 291 291 291 291 291 290 290 289 289 289 288 287 286 285 285 284 284 284 284 284 284 283 283 283 282 282 282 282 282 281 281 280 280 280 283 285 286 286 286 285 282 282 281 280 279 279 279 279
296 296 298 296 295 296 295 294 294 293 291 291 290 290 290 290 290 291 290 290 290 289 289 288 287 286 285 285 284 284 284 284 284 284 284 283 282 282 282 282 282 282 282 281 280 280 280 279 282 285 286 286 286 284 281 280 280 279 279 279 280 280
295 293 294 294 292 292 293 292 291 291 289 289 289 289 289 289 290 290 289 289 289 289 288 288 287 286 285 285 284 284 284 284 284 284 284 284 283 282 283 282 281 280 281 280 280 282 280 279 281 285 286 286 286 284 282 280 280 280 280 280 280 281
292 291 291 291 292 290 290 290 290 288 289 288 289 288 289 289 290 290 290 289 289 288 287 287 286 286 285 285 284 284 284 284 284 283 283 283 283 282 281 281 281 279 279 280 280 280 279 278 280 284 286 286 287 286 284 283 281 281 281 282 283 283
293 292 291 291 290 289 289 289 289 288 288 288 288 288 288 289 290 289 289 288 288 287 286 286 286 285 285 285 284 284 284 284 283 283 283 282 282 281 280 280 280 280 279 279 280 279 280 279 279 283 286 286 287 287 285 284 283 284 284 284 285 285
289 289 288 288 289 288 288 288 287 287 287 287 287 288 289 289 289 288 287 286 286 286 286 285 285 285 285 285 285 284 283 284 284 283 282 282 281 280 279 279 279 279 278 278 279 280 279 280 280 281 285 286 286 287 286 284 284 285 285 285 285 285
288 287 287 287 287 288 287 287 286 286 286 286 287 288 288 288 287 287 286 286 285 285 285 284 284 284 284 284 284 283 282 282 282 282 282 281 280 280 279 279 279 279 278 278 278 279 279 280 280 281 282 285 286 287 287 285 285 286 285 284 283 284
287 286 286 286 287 287 287 286 285 286 286 285 287 287 286 286 286 286 285 285 284 284 284 284 284 284 284 284 283 283 281 281 282 282 281 281 280 279 279 279 279 279 278 277 277 278 279 279 279 281 281 283 285 286 286 286 286 286 285 285 284 284
286 285 285 286 286 286 286 286 285 285 284 285 285 285 285 285 285 284 283 283 283 283 283 284 284 284 284 283 283 282 282 281 282 281 281 281 280 280 279 279 279 279 278 278 278 278 278 278 279 279 280 281 282 284 285 285 285 286 286 285 285 285
285 285 284 284 285 285 285 285 286 284 284 285 285 285 285 284 284 283 283 283 283 283 283 283 283 283 283 283 284 283 282 281 281 281 281 281 281 280 280 279 279 279 279 279 279 278 278 278 278 278 279 280 281 281 282 284 284 284 284 284 283 283
284 284 284 282 284 284 284 285 285 285 285 284 285 284 284 283 283 282 283 282 282 283 283 283 282 282 283 283 284 283 282 282 282 282 281 281 281 281 280 280 279 279 279 279 280 280 279 279 279 279 279 279 280 280 280 280 280 281 281 280 280 280
284 283 282 282 282 282 283 284 284 284 284 284 284 284 284 283 282 282 282 282 282 282 283 282 279 281 283 283 283 282 282 283 283 282 281 281 281 281 281 280 280 280 280 280 281 280 279 278 279 279 278 277 278 278 278 277 277 276 277 276 277 276
283 283 281 280 279 280 280 281 282 283 283 283 283 284 283 282 282 282 282 282 282 282 282 282 282 283 283 283 282 281 282 282 283 282 281 281 283 283 282 281 281 281 281 282 280 279 278 278 277 277 280 278 279 278 276 276 275 276 276 277 278 276
282 281 279 277 277 278 277 278 279 281 282 283 283 283 282 281 281 281 281 282 282 281 281 282 282 282 282 281 279 278 278 279 282 282 281 279 281 282 283 283 281 281 281 280 280 279 279 278 278 280 280 280 280 280 279 279 279 279 278 279 280 279
281 279 277 276 276 276 276 276 277 278 280 282 282 282 281 281 281 281 281 281 281 281 281 281 281 281 280 280 279 278 277 277 279 281 281 281 280 281 281 281 281 281 281 279 276 278 281 280 281 280 280 280 280 279 279 279 280 280 280 281 280 278
278 277 276 276 275 275 275 274 275 276 278 280 281 282 281 281 281 280 281 281 280 280 280 280 280 279 279 279 279 279 278 277 276 277 280 281 281 281 281 281 281 281 281 280 279 278 278 280 280 280 280 280 280 280 281 281 281 281 282 282 282 279
278 278 276 275 275 274 274 273 272 272 274 277 280 281 281 281 281 280 280 279 279 279 278 278 279 279 279 278 278 278 278 277 276 275 275 277 281 281 281 281 281 281 280 280 280 280 280 279 280 280 280 280 280 280 280 281 281 280 280 280 278 277
277 276 275 275 274 274 273 272 270 270 270 272 277 280 280 280 280 280 279 278 278 278 278 278 278 278 278 278 279 279 278 277 277 275 274 273 274 274 276 279 279 279 279 279 279 279 279 279 279 279 279 278 278 278 278 278 278 279 279 278 276 275
276 275 274 273 273 272 271 269 267 266 268 272 277 278 279 279 278 278 274 273 275 278 278 278 278 278 278 278 278 278 277 277 276 275 274 274 273 273 272 271 273 276 277 276 277 277 278 278 277 277 277 277 276 277 277 277 274 274 275 275 273 273
274 273 272 271 272 271 269 267 266 266 267 273 276 277 277 276 276 276 275 276 276 277 277 277 277 277 277 277 277 277 276 275 275 274 275 274 273 272 270 270 270 270 274 276 276 276 276 276 275 275 274 274 274 274 275 271 271 271 271 271 270 269